DateTimeUTC,F1_A11,F1_S11,BsB_S11,BsG_S11,BsR_S11,BbsB_S11,BbsG_S11,BbsR_S11,BaB_A11,BaG_A11,BaR_A11,Tu_S11,T_S11,Uu_S11,U_S11,P_S11,T1_A11
2021-07-13T08:00:00Z,00000200,20000000,,,,,,,-000.29,0000.16,0000.14,18.2,24.8,08.8,05.9,0669.5,31.0
2021-07-13T08:01:00Z,00000200,20000000,,,,,,,0000.02,-000.32,-000.37,18.2,24.9,08.8,05.9,0669.5,31.0
2021-07-13T08:02:00Z,00000200,20000000,,,,,,,-000.26,-000.13,-000.10,18.2,24.9,08.6,05.7,0669.5,31.0
2021-07-13T08:03:00Z,00000200,60000000,,,,,,,0000.03,-000.03,-000.32,18.3,24.9,08.5,05.7,0669.5,31.1
2021-07-13T08:04:00Z,00000200,40000000,0000.93,0000.98,0000.71,0000.24,-000.08,0000.06,0000.22,0000.00,0000.35,18.5,24.8,08.6,05.9,0670.4,31.0
2021-07-13T08:05:00Z,00000200,00000000,0001.13,0000.72,0000.47,0000.50,0000.05,0000.38,0000.17,0000.25,0000.20,18.5,24.7,08.5,05.8,0670.5,31.0
2021-07-13T08:06:00Z,00000200,00000000,0001.23,0000.74,0000.49,0000.12,0000.10,0000.27,-000.18,-000.01,-000.19,18.5,24.7,08.6,05.9,0670.5,31.0
2021-07-13T08:07:00Z,00000200,00000000,0000.96,0000.52,0000.50,0000.90,-000.02,0000.30,0000.17,0000.15,-000.13,18.5,24.7,08.5,05.8,0670.5,31.0
2021-07-13T08:08:00Z,00000200,00000000,0001.33,0000.76,0000.30,0000.45,-000.08,0000.12,0000.37,0000.06,0000.47,18.5,24.7,08.6,05.9,0670.5,31.0
2021-07-13T08:09:00Z,00000200,00000000,0001.10,0000.78,0000.59,0000.42,-000.17,0000.26,0000.06,0000.23,0000.04,18.5,24.7,08.5,05.8,0670.5,31.0
2021-07-13T08:10:00Z,00000200,00000000,0001.39,0000.80,0000.48,0000.05,0000.29,0000.25,0000.02,0000.34,-000.01,18.5,24.7,08.5,05.8,0670.4,31.0
2021-07-13T08:11:00Z,00000200,00000000,0001.28,0000.61,0000.64,0000.46,0000.26,0000.28,0000.14,-000.51,0000.30,18.5,24.7,08.6,05.9,0670.5,31.0
2021-07-13T08:12:00Z,00000200,00000000,0001.38,0000.92,0000.46,0000.30,0000.21,0000.19,-000.19,0000.08,-000.20,18.4,24.7,08.5,05.8,0670.5,31.0
2021-07-13T08:13:00Z,00000200,00000000,0001.52,0000.43,0000.51,0000.63,0000.03,0000.15,0000.30,0000.45,0000.37,18.4,24.7,08.7,05.9,0670.5,31.0
2021-07-13T08:14:00Z,00000200,00000000,0001.71,0000.45,0000.47,0000.45,-000.17,0000.12,0000.09,0000.14,0000.03,18.4,24.6,08.6,05.9,0670.5,31.0
2021-07-13T08:15:00Z,00000200,00000000,0001.50,0000.62,0000.52,0000.71,0000.10,0000.30,-000.03,-000.18,0000.13,18.4,24.6,08.6,05.9,0670.5,31.0
2021-07-13T08:16:00Z,00000200,00000000,0001.24,0000.63,0000.18,0001.15,-000.04,-000.06,-000.12,0000.10,-000.34,18.4,24.6,08.7,05.9,0670.4,31.0
2021-07-13T08:17:00Z,00000200,00000000,0001.04,0000.47,0000.31,0000.29,0000.14,0000.16,0000.52,-000.02,0000.16,18.4,24.6,08.7,05.9,0670.4,31.0
2021-07-13T08:18:00Z,00000200,00000000,0001.62,0000.59,0000.75,-000.46,0000.24,0000.39,-000.37,-000.05,-000.10,18.4,24.6,08.7,05.9,0670.4,31.0
2021-07-13T08:19:00Z,00000200,00000000,0001.68,0000.65,0000.57,0000.74,0000.14,0000.25,0000.11,0000.05,-000.04,18.4,24.6,08.7,05.9,0670.4,31.0
2021-07-13T08:20:00Z,00000200,00000000,0001.05,0000.60,0000.45,0000.15,0000.32,0000.36,0000.14,-000.05,0000.04,18.4,24.6,08.7,05.9,0670.4,31.0
2021-07-13T08:21:00Z,00000200,00000000,0001.14,0000.50,0000.43,0000.70,0000.04,0000.28,-000.01,0000.31,-000.04,18.4,24.7,08.8,06.0,0670.4,31.0
2021-07-13T08:22:00Z,00000200,00000000,0001.41,0000.44,0000.59,0000.27,-000.27,0000.09,0000.44,0000.11,0000.36,18.4,24.6,08.7,05.9,0670.4,31.0
2021-07-13T08:23:00Z,00000200,00000000,0000.76,0000.69,0000.67,0000.09,0000.02,0000.22,0000.37,-000.05,-000.09,18.4,24.6,08.7,05.9,0670.4,31.0
2021-07-13T08:24:00Z,00000200,00000000,0001.62,0000.49,0000.75,0000.56,0000.06,0000.41,-000.54,0000.21,0000.43,18.4,24.6,08.7,05.9,0670.4,31.0
2021-07-13T08:25:00Z,00000200,00000000,0001.77,0000.65,0000.29,0000.10,0000.16,0000.24,0000.10,0000.05,-000.09,18.4,24.6,08.7,06.0,0670.4,31.0
2021-07-13T08:26:00Z,00000200,00000000,0001.51,0000.83,0000.37,0000.27,0000.13,0000.07,0000.20,0000.20,0000.27,18.4,24.6,08.7,06.0,0670.4,31.0
2021-07-13T08:27:00Z,00000200,00000000,0001.39,0000.88,0000.65,0000.72,-000.06,0000.30,0000.26,0000.16,-000.25,18.4,24.6,08.8,06.0,0670.4,31.0
2021-07-13T08:28:00Z,00000200,00000000,0001.71,0000.80,0000.74,-000.13,0000.28,0000.28,-000.14,-000.02,0000.06,18.4,24.6,08.7,05.9,0670.4,31.0
2021-07-13T08:29:00Z,00000200,00000000,0001.00,0000.91,0000.58,0000.42,-000.11,0000.36,0000.25,-000.06,-000.07,18.4,24.6,08.8,06.0,0670.4,31.0
2021-07-13T08:30:00Z,00000200,00000000,0000.50,0000.44,0000.31,0000.08,0000.06,-000.05,0000.02,-000.01,0000.17,18.4,24.6,08.8,06.0,0670.4,31.0
2021-07-13T08:31:00Z,00000200,00000000,0000.96,0000.58,0000.59,0000.63,-000.12,0000.11,-000.13,-000.05,-000.11,18.4,24.6,08.8,06.0,0670.4,31.0
2021-07-13T08:32:00Z,00000200,00000000,0001.68,0000.69,0000.26,0000.76,0000.10,-000.08,0000.33,0000.31,0000.66,18.4,24.6,08.9,06.1,0670.4,31.0
2021-07-13T08:33:00Z,00000200,00000000,0001.24,0000.60,0000.53,0000.46,0000.17,-000.01,-000.26,0000.03,-000.37,18.4,24.6,08.9,06.1,0670.4,31.0
2021-07-13T08:34:00Z,00000200,00000000,0000.91,0000.56,0000.16,0001.22,-000.03,0000.19,0000.21,-000.03,0000.15,18.4,24.6,08.8,06.0,0670.4,31.0
2021-07-13T08:35:00Z,00000200,00000000,0001.61,0000.80,0000.69,-000.10,0000.02,0000.11,0000.29,0000.33,-000.00,18.4,24.6,08.9,06.0,0670.3,31.0
2021-07-13T08:36:00Z,00000200,00000000,0001.25,0000.55,0000.08,0000.49,-000.04,0000.20,0000.25,0000.07,0000.26,18.4,24.6,08.9,06.1,0670.3,31.0
2021-07-13T08:37:00Z,00000200,00000000,0001.34,0000.67,0000.51,0000.22,0000.14,0000.17,-000.14,0000.18,-000.03,18.4,24.6,09.0,06.1,0670.3,31.0
2021-07-13T08:38:00Z,00000200,00000000,0001.16,0000.63,0000.15,0000.36,0000.01,0000.59,-000.18,0000.09,0000.15,18.4,24.6,08.8,06.0,0670.3,31.0
2021-07-13T08:39:00Z,00000200,00000000,0001.80,0000.46,0000.33,0000.16,-000.03,0000.11,0000.52,0000.00,0000.12,18.4,24.6,09.0,06.2,0670.3,31.0
2021-07-13T08:40:00Z,00000200,00000000,0000.74,0000.57,0000.54,-000.24,0000.13,0000.43,0000.06,0000.55,0000.24,18.4,24.6,08.7,06.0,0670.3,31.0
2021-07-13T08:41:00Z,00000200,00000000,0000.87,0000.78,0000.24,0000.58,0000.10,0000.15,0000.19,-000.62,-000.12,18.4,24.6,08.8,06.0,0670.3,31.0
2021-07-13T08:42:00Z,00000200,00000000,0001.39,0000.69,0000.05,0000.46,-000.00,0000.22,0000.09,0000.49,0000.03,18.4,24.6,08.9,06.1,0670.3,31.0
2021-07-13T08:43:00Z,00000200,00000000,0001.31,0000.67,0000.39,0000.22,0000.37,0000.32,0000.10,-000.01,0000.38,18.4,24.6,08.9,06.1,0670.3,31.0
2021-07-13T08:44:00Z,00000200,00000000,0001.07,0000.82,0000.66,0000.22,0000.21,0000.22,0000.21,-000.10,-000.00,18.4,24.6,09.0,06.2,0670.3,31.0
2021-07-13T08:45:00Z,00000200,00000000,0000.59,0000.40,0000.30,0000.96,0000.26,0000.32,-000.20,0000.17,-000.02,18.5,24.6,09.0,06.2,0670.3,31.0
2021-07-13T08:46:00Z,00000200,00000000,0001.14,0000.37,0000.61,0000.60,0000.05,0000.46,0000.38,0000.35,0000.29,18.5,24.6,09.0,06.2,0670.3,31.0
2021-07-13T08:47:00Z,00000200,00000000,0001.32,0000.86,0000.66,0000.60,0000.08,0000.05,0000.09,0000.20,-000.06,18.5,24.6,09.1,06.2,0670.3,31.0
2021-07-13T08:48:00Z,00000200,00000000,0001.06,0000.54,0000.50,0000.36,0000.19,0000.10,0000.17,0000.18,0000.07,18.4,24.6,09.1,06.3,0670.3,31.0
2021-07-13T08:49:00Z,00000200,00000000,0001.77,0000.83,0000.61,0000.59,0000.06,0000.13,0000.31,0000.24,0000.44,18.4,24.6,09.0,06.2,0670.3,31.0
2021-07-13T08:50:00Z,00000200,00000000,0000.74,0000.49,0000.52,0000.36,0000.12,0000.22,-000.28,-000.18,-000.22,18.5,24.6,09.1,06.2,0670.3,31.0
2021-07-13T08:51:00Z,00000200,00000000,0000.61,0000.57,0000.51,0000.65,0000.28,0000.22,-000.00,-000.04,-000.16,18.4,24.6,09.1,06.2,0670.3,31.0
2021-07-13T08:52:00Z,00000200,00000000,0000.75,0000.67,0000.29,0000.12,0000.12,0000.27,0000.05,0000.17,0000.03,18.4,24.6,09.2,06.3,0670.3,31.0
2021-07-13T08:53:00Z,00000200,00000000,0000.95,0000.59,0000.54,0000.31,0000.00,0000.11,0000.47,0000.23,0000.27,18.4,24.6,09.1,06.2,0670.3,31.0
2021-07-13T08:54:00Z,00000200,00000000,0001.33,0000.63,0000.64,0000.46,0000.14,0000.23,0000.20,0000.12,0000.19,18.4,24.6,09.1,06.2,0670.3,31.0
2021-07-13T08:55:00Z,00000200,00000000,0000.95,0000.48,0000.40,0000.26,0000.15,0000.35,-000.21,0000.11,0000.02,18.4,24.6,09.1,06.2,0670.3,31.0
2021-07-13T08:56:00Z,00000200,00000000,0000.63,0000.69,0000.63,0000.42,0000.29,-000.19,0000.26,0000.12,0000.04,18.4,24.6,09.0,06.2,0670.3,31.0
2021-07-13T08:57:00Z,00000200,40000000,,,,,,,0000.07,-000.64,0000.01,18.5,24.5,09.2,06.3,0670.3,31.0
2021-07-13T08:58:00Z,00000200,60000000,,,,,,,-000.24,0000.34,-000.14,18.2,24.7,08.9,06.0,0669.3,31.0
2021-07-13T08:59:00Z,00000200,20000000,,,,,,,0000.28,0000.25,0000.18,18.2,24.8,08.9,05.9,0669.3,31.0
